Location: Kalisz
(51.7636°N, 18.0893°E)
Time: 04:12:50
(UTC+02:00)

ISS - Pass Details

Date: 23 March 2019
Orbit: 408 x 410 km, 51.6° (Epoch: 20 April)

Event Time Altitude Azimuth Distance (km) Brightness Sun altitude
Rises 18:43:11 0° 201° (SSW) 2,326 0.2 -6.6°
Reaches altitude 10° 18:45:55 10° 177° (S) 1,469 -1.1 -7.1°
Maximum altitude 18:47:50 15° 141° (SE) 1,219 -1.9 -7.4°
Enters shadow 18:49:42 10° 106° (ESE) 1,457 -1.7 -7.6°
